DLH6KL EDDF-EKCH

Flight info

Callsign DLH6KL
Flight time 1h 10m
Altitude 35000
Route MARUN3W MARUN Y150 TOLGI DCT SAS DCT MAKEL N851 GESKA Z711 MONAK
Aircraft A320/M-SDE3FGHIRWY/LB1

Departure

Time 2026-05-04 18:43
Airport Frankfurt Main Airport (EDDF)

Arrival

Time 2026-05-04 19:54
Airport Copenhagen Kastrup Airport (EKCH)
Time Latitude Longitude Altitude Speed Heading
2026-05-04 18:17 50.04932 8.59254 353 ft 0 kts 339°
2026-05-04 18:33 50.04911 8.59265 358 ft 4 kts 342°
2026-05-04 18:33 50.04886 8.59277 350 ft 4 kts 341°
2026-05-04 18:33 50.04862 8.59294 354 ft 4 kts 309°
2026-05-04 18:34 50.04860 8.59322 355 ft 4 kts 246°
2026-05-04 18:34 50.04874 8.59356 356 ft 4 kts 220°
2026-05-04 18:34 50.04896 8.59376 353 ft 4 kts 190°
2026-05-04 18:34 50.04923 8.59377 353 ft 4 kts 170°
2026-05-04 18:35 50.04949 8.59367 352 ft 4 kts 160°
2026-05-04 18:35 50.04970 8.59355 356 ft 1 kts 161°
2026-05-04 18:35 50.04970 8.59354 356 ft 0 kts 161°
2026-05-04 18:37 50.04969 8.59355 356 ft 1 kts 161°
2026-05-04 18:37 50.04928 8.59372 352 ft 9 kts 169°
2026-05-04 18:37 50.04876 8.59347 353 ft 9 kts 222°
2026-05-04 18:38 50.04841 8.59246 348 ft 11 kts 247°
2026-05-04 18:38 50.04817 8.59146 349 ft 9 kts 250°
2026-05-04 18:38 50.04798 8.59063 353 ft 8 kts 250°
2026-05-04 18:38 50.04778 8.58977 350 ft 9 kts 250°
2026-05-04 18:39 50.04755 8.58881 353 ft 11 kts 249°
2026-05-04 18:39 50.04712 8.58777 348 ft 11 kts 205°
2026-05-04 18:39 50.04642 8.58758 349 ft 9 kts 187°
2026-05-04 18:39 50.04626 8.58754 345 ft 0 kts 188°
2026-05-04 18:41 50.04592 8.58724 353 ft 9 kts 219°
2026-05-04 18:41 50.04546 8.58666 350 ft 8 kts 219°
2026-05-04 18:41 50.04504 8.58610 349 ft 7 kts 223°
2026-05-04 18:42 50.04479 8.58550 351 ft 6 kts 246°
2026-05-04 18:42 50.04461 8.58475 353 ft 15 kts 249°
2026-05-04 18:42 50.04368 8.58083 351 ft 72 kts 250°
2026-05-04 18:42 50.04118 8.57040 350 ft 131 kts 250°
2026-05-04 18:43 50.03746 8.55482 416 ft 169 kts 253°
2026-05-04 18:43 50.03350 8.53765 1075 ft 169 kts 252°
2026-05-04 18:43 50.02955 8.52043 1753 ft 172 kts 252°
2026-05-04 18:43 50.02499 8.50198 2111 ft 193 kts 244°
2026-05-04 18:44 50.01532 8.48620 2489 ft 214 kts 211°
2026-05-04 18:44 50.00608 8.48032 2925 ft 218 kts 193°
2026-05-04 18:44 49.98642 8.47713 4201 ft 210 kts 187°
2026-05-04 18:44 49.97190 8.47414 5019 ft 211 kts 188°
2026-05-04 18:45 49.95738 8.46990 5791 ft 215 kts 196°
2026-05-04 18:45 49.94238 8.46291 6198 ft 236 kts 197°
2026-05-04 18:45 49.92656 8.45480 6916 ft 242 kts 205°
2026-05-04 18:45 49.91343 8.43850 7723 ft 246 kts 232°
2026-05-04 18:46 49.90667 8.41412 8553 ft 253 kts 259°
2026-05-04 18:46 49.90829 8.38676 9402 ft 262 kts 288°
2026-05-04 18:46 49.91880 8.36340 10187 ft 273 kts 318°
2026-05-04 18:46 49.93582 8.34918 10786 ft 287 kts 333°
2026-05-04 18:47 49.95496 8.33654 11037 ft 311 kts 334°
2026-05-04 18:47 49.97570 8.32324 11263 ft 334 kts 335°
2026-05-04 18:47 49.99768 8.30922 11718 ft 347 kts 335°
2026-05-04 18:47 50.02054 8.29618 12402 ft 354 kts 342°
2026-05-04 18:48 50.04505 8.29000 13112 ft 361 kts 355°
2026-05-04 18:48 50.07039 8.29193 13811 ft 368 kts
2026-05-04 18:48 50.09528 8.30226 14416 ft 373 kts 18°
2026-05-04 18:48 50.11993 8.31533 15045 ft 376 kts 17°
2026-05-04 18:49 50.14486 8.32840 15667 ft 380 kts 17°
2026-05-04 18:49 50.17005 8.34153 16282 ft 384 kts 17°
2026-05-04 18:49 50.19517 8.35637 16896 ft 388 kts 27°
2026-05-04 18:49 50.21841 8.37825 17506 ft 392 kts 32°
2026-05-04 18:50 50.24161 8.40104 18117 ft 395 kts 32°
2026-05-04 18:50 50.26493 8.42413 18654 ft 399 kts 32°
2026-05-04 18:50 50.28842 8.44751 19185 ft 402 kts 32°
2026-05-04 18:50 50.31223 8.47122 19704 ft 405 kts 32°
2026-05-04 18:51 50.33600 8.49484 20218 ft 408 kts 32°
2026-05-04 18:51 50.36003 8.51877 20726 ft 411 kts 32°
2026-05-04 18:51 50.38431 8.54299 21206 ft 414 kts 32°
2026-05-04 18:51 50.40868 8.56734 21711 ft 417 kts 32°
2026-05-04 18:52 50.43326 8.59191 22185 ft 420 kts 32°
2026-05-04 18:52 50.45801 8.61665 22658 ft 423 kts 32°
2026-05-04 18:52 50.48292 8.64154 23130 ft 426 kts 32°
2026-05-04 18:52 50.50804 8.66669 23588 ft 429 kts 32°
2026-05-04 18:53 50.53326 8.69202 23964 ft 432 kts 32°
2026-05-04 18:53 50.55867 8.71754 24347 ft 435 kts 31°
2026-05-04 18:53 50.58430 8.74330 24701 ft 438 kts 31°
2026-05-04 18:53 50.61041 8.76959 25073 ft 441 kts 31°
2026-05-04 18:54 50.63600 8.79541 25426 ft 444 kts 31°
2026-05-04 18:54 50.66205 8.82175 25778 ft 447 kts 31°
2026-05-04 18:54 50.68833 8.84833 26126 ft 450 kts 31°
2026-05-04 18:54 50.71471 8.87502 26483 ft 452 kts 31°
2026-05-04 18:55 50.74126 8.90198 26820 ft 455 kts 31°
2026-05-04 18:55 50.79474 8.95646 27506 ft 460 kts 31°
2026-05-04 18:55 50.82176 8.98400 27839 ft 463 kts 31°
2026-05-04 18:56 50.84889 9.01166 28185 ft 466 kts 32°
2026-05-04 18:56 50.87620 9.03957 28514 ft 468 kts 32°
2026-05-04 18:56 50.90364 9.06764 28842 ft 471 kts 31°
2026-05-04 18:56 50.93126 9.09589 29168 ft 474 kts 32°
2026-05-04 18:57 50.95899 9.12432 29482 ft 476 kts 32°
2026-05-04 18:57 50.98723 9.15335 29799 ft 479 kts 31°
2026-05-04 18:57 51.01532 9.18228 30052 ft 482 kts 31°
2026-05-04 18:57 51.04354 9.21139 30291 ft 485 kts 31°
2026-05-04 18:58 51.07151 9.24028 30534 ft 487 kts 31°
2026-05-04 18:58 51.10116 9.26767 30788 ft 486 kts 23°
2026-05-04 18:58 51.13248 9.28753 31032 ft 485 kts 14°
2026-05-04 18:58 51.16520 9.30027 31299 ft 483 kts
2026-05-04 18:59 51.19804 9.31143 31659 ft 482 kts
2026-05-04 18:59 51.23075 9.32266 32048 ft 480 kts
2026-05-04 18:59 51.26338 9.33396 32440 ft 479 kts
2026-05-04 18:59 51.29590 9.34529 32786 ft 478 kts
2026-05-04 19:00 51.32832 9.35661 33141 ft 477 kts
2026-05-04 19:00 51.34978 9.36411 33373 ft 476 kts
2026-05-04 19:00 51.38215 9.37543 33734 ft 476 kts
2026-05-04 19:00 51.41446 9.38676 34070 ft 475 kts
2026-05-04 19:01 51.44604 9.40279 34364 ft 480 kts 21°
2026-05-04 19:01 51.48633 9.43192 34715 ft 480 kts 21°
2026-05-04 19:01 51.51669 9.45430 34943 ft 480 kts 22°
2026-05-04 19:01 51.54688 9.47674 34998 ft 476 kts 22°
2026-05-04 19:02 51.59701 9.51404 34993 ft 472 kts 22°
2026-05-04 19:02 51.65658 9.55843 35001 ft 472 kts 22°
2026-05-04 19:03 51.71623 9.60282 34984 ft 472 kts 21°
2026-05-04 19:03 51.77597 9.64720 34979 ft 472 kts 21°
2026-05-04 19:04 51.83564 9.69180 34976 ft 472 kts 22°
2026-05-04 19:04 51.89525 9.73661 34986 ft 472 kts 21°
2026-05-04 19:05 51.95480 9.78146 34977 ft 472 kts 21°
2026-05-04 19:05 52.01440 9.82654 34977 ft 472 kts 21°
2026-05-04 19:06 52.07068 9.86920 34980 ft 472 kts 21°
2026-05-04 19:06 52.13012 9.91427 34985 ft 471 kts 21°
2026-05-04 19:07 52.18948 9.95940 34990 ft 471 kts 21°
2026-05-04 19:07 52.24873 10.00468 34979 ft 470 kts 21°
2026-05-04 19:08 52.30795 10.05006 34979 ft 470 kts 21°
2026-05-04 19:08 52.36709 10.09551 34984 ft 470 kts 21°
2026-05-04 19:09 52.42625 10.14107 34978 ft 470 kts 21°
2026-05-04 19:09 52.48533 10.18667 34977 ft 469 kts 21°
2026-05-04 19:10 52.54439 10.23249 34973 ft 470 kts 21°
2026-05-04 19:10 52.60347 10.27845 34983 ft 470 kts 21°
2026-05-04 19:11 52.66259 10.32466 34960 ft 470 kts 21°
2026-05-04 19:11 52.72175 10.37100 34958 ft 471 kts 21°
2026-05-04 19:12 52.81047 10.44053 34967 ft 470 kts 21°
2026-05-04 19:13 52.85904 10.47885 34966 ft 470 kts 21°
2026-05-04 19:13 52.90606 10.51598 34965 ft 470 kts 21°
2026-05-04 19:14 52.96515 10.56273 34959 ft 470 kts 21°
2026-05-04 19:14 53.02409 10.60963 34960 ft 469 kts 21°
2026-05-04 19:15 53.05898 10.63743 34954 ft 469 kts 21°
2026-05-04 19:15 53.09071 10.66275 34955 ft 469 kts 21°
2026-05-04 19:16 53.14957 10.70983 34951 ft 469 kts 21°
2026-05-04 19:16 53.20841 10.75701 34949 ft 469 kts 21°
2026-05-04 19:17 53.26719 10.80426 34978 ft 469 kts 21°
2026-05-04 19:17 53.32594 10.85170 34965 ft 468 kts 21°
2026-05-04 19:18 53.38455 10.89921 34973 ft 468 kts 21°
2026-05-04 19:18 53.44305 10.94666 34972 ft 468 kts 21°
2026-05-04 19:19 53.50159 10.99430 34406 ft 466 kts 21°
2026-05-04 19:19 53.53050 11.01795 33997 ft 459 kts 20°
2026-05-04 19:19 53.55911 11.04139 33474 ft 455 kts 20°
2026-05-04 19:19 53.58748 11.06463 32920 ft 452 kts 20°
2026-05-04 19:20 53.61566 11.08772 32361 ft 450 kts 20°
2026-05-04 19:20 53.64372 11.11078 31790 ft 448 kts 20°
2026-05-04 19:20 53.67167 11.13378 31257 ft 446 kts 21°
2026-05-04 19:20 53.69950 11.15670 30718 ft 444 kts 21°
2026-05-04 19:21 53.72720 11.17954 30227 ft 442 kts 20°
2026-05-04 19:21 53.75483 11.20237 29638 ft 441 kts 21°
2026-05-04 19:21 53.78231 11.22511 29103 ft 438 kts 21°
2026-05-04 19:21 53.80961 11.24770 28581 ft 435 kts 21°
2026-05-04 19:22 53.83663 11.27009 28109 ft 431 kts 21°
2026-05-04 19:22 53.86347 11.29239 27935 ft 429 kts 21°
2026-05-04 19:22 53.89031 11.31440 27977 ft 428 kts 18°
2026-05-04 19:22 53.91840 11.32775 27743 ft 412 kts 359°
2026-05-04 19:23 53.94637 11.32686 27237 ft 397 kts 346°
2026-05-04 19:23 53.97363 11.32073 26755 ft 393 kts 345°
2026-05-04 19:23 54.00052 11.31462 26338 ft 389 kts 345°
2026-05-04 19:23 54.02764 11.31228 25895 ft 395 kts 359°
2026-05-04 19:24 54.05458 11.32364 25451 ft 405 kts 18°
2026-05-04 19:24 54.07916 11.34767 24985 ft 408 kts 27°
2026-05-04 19:24 54.10304 11.37366 24531 ft 406 kts 27°
2026-05-04 19:24 54.12665 11.39960 24103 ft 403 kts 28°
2026-05-04 19:25 54.15014 11.42556 23687 ft 400 kts 28°
2026-05-04 19:25 54.17339 11.45127 23215 ft 397 kts 28°
2026-05-04 19:25 54.19647 11.47675 22753 ft 393 kts 28°
2026-05-04 19:25 54.21939 11.50199 22310 ft 391 kts 27°
2026-05-04 19:26 54.24215 11.52702 21865 ft 388 kts 27°
2026-05-04 19:26 54.26478 11.55190 21438 ft 385 kts 27°
2026-05-04 19:26 54.28721 11.57662 21021 ft 382 kts 28°
2026-05-04 19:26 54.30939 11.60109 20621 ft 379 kts 28°
2026-05-04 19:27 54.33146 11.62545 20216 ft 376 kts 28°
2026-05-04 19:27 54.35334 11.64960 19820 ft 373 kts 28°
2026-05-04 19:27 54.37509 11.67371 19438 ft 371 kts 28°
2026-05-04 19:27 54.39666 11.69770 19051 ft 368 kts 29°
2026-05-04 19:28 54.41802 11.72152 18680 ft 365 kts 29°
2026-05-04 19:28 54.43925 11.74520 18323 ft 362 kts 30°
2026-05-04 19:28 54.46028 11.76870 17935 ft 359 kts 30°
2026-05-04 19:28 54.48116 11.79206 17540 ft 357 kts 30°
2026-05-04 19:29 54.50188 11.81521 17145 ft 354 kts 30°
2026-05-04 19:29 54.52249 11.83821 16757 ft 352 kts 29°
2026-05-04 19:29 54.54299 11.86108 16372 ft 350 kts 29°
2026-05-04 19:29 54.56331 11.88379 16002 ft 348 kts 29°
2026-05-04 19:30 54.58356 11.90651 15627 ft 346 kts 29°
2026-05-04 19:30 54.60366 11.92914 15274 ft 344 kts 30°
2026-05-04 19:30 54.62361 11.95167 14924 ft 342 kts 30°
2026-05-04 19:30 54.64345 11.97412 14582 ft 340 kts 30°
2026-05-04 19:31 54.66320 11.99645 14248 ft 338 kts 30°
2026-05-04 19:31 54.68282 12.01858 13925 ft 336 kts 29°
2026-05-04 19:31 54.70239 12.04061 13563 ft 335 kts 29°
2026-05-04 19:31 54.72187 12.06258 13189 ft 333 kts 29°
2026-05-04 19:32 54.74121 12.08447 12820 ft 331 kts 29°
2026-05-04 19:32 54.76043 12.10626 12454 ft 329 kts 29°
2026-05-04 19:32 54.77951 12.12796 12088 ft 327 kts 29°
2026-05-04 19:32 54.79846 12.14955 11734 ft 325 kts 29°
2026-05-04 19:33 54.81733 12.17104 11373 ft 323 kts 29°
2026-05-04 19:33 54.83607 12.19242 11018 ft 322 kts 29°
2026-05-04 19:33 54.85472 12.21366 10662 ft 320 kts 29°
2026-05-04 19:33 54.87327 12.23480 10298 ft 318 kts 30°
2026-05-04 19:34 54.89166 12.25583 9952 ft 316 kts 30°
2026-05-04 19:34 54.90973 12.27661 9801 ft 307 kts 30°
2026-05-04 19:34 54.92732 12.29686 9538 ft 301 kts 30°
2026-05-04 19:34 54.94471 12.31683 9189 ft 299 kts 30°
2026-05-04 19:35 54.96198 12.33666 8956 ft 296 kts 30°
2026-05-04 19:35 54.97922 12.35648 8958 ft 297 kts 30°
2026-05-04 19:35 54.99646 12.37635 8959 ft 298 kts 30°
2026-05-04 19:35 55.01374 12.39626 8960 ft 298 kts 30°
2026-05-04 19:36 55.03102 12.41616 8962 ft 298 kts 30°
2026-05-04 19:36 55.04828 12.43608 8962 ft 298 kts 30°
2026-05-04 19:36 55.06553 12.45603 8961 ft 298 kts 30°
2026-05-04 19:36 55.08281 12.47602 8962 ft 298 kts 30°
2026-05-04 19:37 55.10003 12.49598 8808 ft 296 kts 30°
2026-05-04 19:37 55.11714 12.51581 8414 ft 294 kts 30°
2026-05-04 19:37 55.13416 12.53556 8027 ft 293 kts 30°
2026-05-04 19:37 55.15106 12.55514 7667 ft 291 kts 30°
2026-05-04 19:38 55.16784 12.57459 7305 ft 289 kts 30°
2026-05-04 19:38 55.18454 12.59406 6934 ft 287 kts 30°
2026-05-04 19:38 55.20109 12.61337 6560 ft 285 kts 30°
2026-05-04 19:38 55.21751 12.63254 6185 ft 283 kts 30°
2026-05-04 19:39 55.23430 12.64957 5954 ft 273 kts 20°
2026-05-04 19:39 55.25193 12.66069 5957 ft 267 kts 14°
2026-05-04 19:39 55.26952 12.67062 5748 ft 265 kts 14°
2026-05-04 19:39 55.28679 12.68043 5376 ft 263 kts 14°
2026-05-04 19:40 55.30407 12.69032 5161 ft 254 kts 14°
2026-05-04 19:40 55.32079 12.69989 5025 ft 252 kts 14°
2026-05-04 19:40 55.33740 12.70941 5011 ft 251 kts 14°
2026-05-04 19:40 55.35397 12.71889 5012 ft 252 kts 14°
2026-05-04 19:41 55.37060 12.72839 4793 ft 249 kts 14°
2026-05-04 19:41 55.38692 12.73773 4436 ft 248 kts 15°
2026-05-04 19:41 55.40323 12.74707 4093 ft 246 kts 15°
2026-05-04 19:41 55.41939 12.75635 4010 ft 244 kts 15°
2026-05-04 19:42 55.43012 12.76250 4014 ft 245 kts 15°
2026-05-04 19:42 55.44636 12.77182 4013 ft 246 kts 15°
2026-05-04 19:42 55.46262 12.78116 4014 ft 246 kts 15°
2026-05-04 19:42 55.47886 12.79049 4014 ft 246 kts 15°
2026-05-04 19:43 55.49508 12.79983 4011 ft 246 kts 15°
2026-05-04 19:43 55.51133 12.80919 4011 ft 245 kts 15°
2026-05-04 19:43 55.52755 12.81855 4011 ft 246 kts 15°
2026-05-04 19:43 55.54383 12.82795 4011 ft 245 kts 15°
2026-05-04 19:44 55.56004 12.83743 4033 ft 246 kts 17°
2026-05-04 19:44 55.57604 12.84817 4033 ft 246 kts 19°
2026-05-04 19:44 55.59169 12.85948 4030 ft 238 kts 19°
2026-05-04 19:44 55.60692 12.87070 4031 ft 236 kts 19°
2026-05-04 19:45 55.62197 12.88231 4031 ft 237 kts 25°
2026-05-04 19:45 55.63570 12.89869 3978 ft 238 kts 37°
2026-05-04 19:45 55.64806 12.91815 3653 ft 237 kts 39°
2026-05-04 19:45 55.66032 12.93745 3352 ft 235 kts 38°
2026-05-04 19:46 55.67253 12.95642 3086 ft 231 kts 38°
2026-05-04 19:46 55.68461 12.97516 3023 ft 231 kts 38°
2026-05-04 19:46 55.69672 12.99414 3018 ft 232 kts 39°
2026-05-04 19:46 55.70893 13.01289 3022 ft 231 kts 31°
2026-05-04 19:47 55.72361 13.02223 3022 ft 224 kts 358°
2026-05-04 19:47 55.73824 13.01568 3024 ft 218 kts 324°
2026-05-04 19:47 55.74952 12.99802 3023 ft 217 kts 312°
2026-05-04 19:47 55.75970 12.97835 3021 ft 213 kts 310°
2026-05-04 19:48 55.76922 12.95934 3019 ft 199 kts 308°
2026-05-04 19:48 55.77465 12.93813 3017 ft 185 kts 279°
2026-05-04 19:48 55.77444 12.91584 3040 ft 180 kts 260°
2026-05-04 19:48 55.76974 12.89543 3021 ft 181 kts 239°
2026-05-04 19:49 55.76111 12.87902 3029 ft 184 kts 224°
2026-05-04 19:49 55.75152 12.86405 3025 ft 183 kts 225°
2026-05-04 19:49 55.74228 12.84963 3005 ft 172 kts 225°
2026-05-04 19:49 55.73350 12.83591 2861 ft 166 kts 225°
2026-05-04 19:50 55.72490 12.82247 2660 ft 164 kts 225°
2026-05-04 19:50 55.71636 12.80912 2453 ft 164 kts 226°
2026-05-04 19:50 55.70780 12.79577 2226 ft 163 kts 226°
2026-05-04 19:50 55.69931 12.78253 2012 ft 162 kts 226°
2026-05-04 19:51 55.69084 12.76933 1790 ft 162 kts 226°
2026-05-04 19:51 55.68240 12.75619 1568 ft 161 kts 225°
2026-05-04 19:51 55.67404 12.74317 1349 ft 158 kts 225°
2026-05-04 19:51 55.66598 12.73066 1139 ft 149 kts 225°
2026-05-04 19:52 55.65844 12.71896 956 ft 141 kts 225°
2026-05-04 19:52 55.65120 12.70766 733 ft 137 kts 224°
2026-05-04 19:52 55.64396 12.69638 548 ft 138 kts 224°
2026-05-04 19:52 55.63680 12.68521 375 ft 137 kts 224°
2026-05-04 19:53 55.62960 12.67410 180 ft 137 kts 224°
2026-05-04 19:53 55.62257 12.66316 31 ft 132 kts 224°
2026-05-04 19:53 55.61663 12.65392 22 ft 91 kts 221°
2026-05-04 19:53 55.61301 12.64835 25 ft 54 kts 220°
2026-05-04 19:54 55.61038 12.64425 22 ft 47 kts 221°
2026-05-04 19:54 55.60818 12.64080 28 ft 33 kts 222°
2026-05-04 19:54 55.60703 12.63891 29 ft 13 kts 237°
2026-05-04 19:54 55.60721 12.63736 24 ft 15 kts 308°
2026-05-04 19:55 55.60795 12.63598 24 ft 16 kts 333°
2026-05-04 19:55 55.60897 12.63668 25 ft 17 kts 33°
2026-05-04 19:55 55.61001 12.63788 24 ft 19 kts 33°
2026-05-04 19:55 55.61117 12.63921 24 ft 21 kts 32°
2026-05-04 19:56 55.61243 12.64066 24 ft 22 kts 32°
2026-05-04 19:56 55.61379 12.64223 24 ft 24 kts 32°
2026-05-04 19:56 55.61525 12.64390 27 ft 26 kts 31°
2026-05-04 19:56 55.61658 12.64543 26 ft 12 kts 34°
2026-05-04 19:57 55.61723 12.64562 24 ft 11 kts 356°
2026-05-04 19:57 55.61817 12.64536 24 ft 15 kts 349°
2026-05-04 19:57 55.61927 12.64502 24 ft 17 kts 356°
2026-05-04 19:57 55.62039 12.64571 24 ft 14 kts 33°
2026-05-04 19:58 55.62056 12.64591 24 ft 0 kts 33°
2026-05-04 19:58 55.62086 12.64626 26 ft 8 kts 33°
2026-05-04 19:59 55.62127 12.64652 24 ft 5 kts 354°
2026-05-04 19:59 55.62159 12.64608 24 ft 7 kts 311°
2026-05-04 19:59 55.62185 12.64543 23 ft 3 kts 303°
2026-05-04 19:59 55.62186 12.64541 23 ft 0 kts 303°
2026-05-04 20:00 55.62194 12.64519 24 ft 7 kts 303°
2026-05-04 20:01 55.62246 12.64379 22 ft 19 kts 303°
2026-05-04 20:01 55.62324 12.64168 20 ft 22 kts 303°
2026-05-04 20:01 55.62408 12.63940 21 ft 21 kts 304°
2026-05-04 20:01 55.62518 12.63782 25 ft 16 kts 345°
2026-05-04 20:02 55.62564 12.63770 24 ft 0 kts 352°
2026-05-04 20:02 55.62574 12.63769 24 ft 6 kts 358°
2026-05-04 20:03 55.62657 12.63820 25 ft 18 kts 32°
2026-05-04 20:03 55.62765 12.63942 24 ft 16 kts 31°
2026-05-04 20:03 55.62844 12.63986 24 ft 11 kts 12°
2026-05-04 20:03 55.62873 12.63997 24 ft 1 kts 12°
2026-05-04 20:04 55.62877 12.63998 24 ft 0 kts 12°
2026-05-04 20:04 55.62881 12.64000 24 ft 1 kts 12°
2026-05-04 20:04 55.62885 12.64001 24 ft 0 kts 12°